Regional Weather Roundup
Issued by NWS

Home | Current Version | Previous Version | Text Only | Print | Product List | Glossary On
Versions: 1 2 3 4 5 6 7 8 9 10 11 12 13 14 15 16 17 18 19 20 21 22 23 24 25 26 27 28 29 30 31 32 33 34 35 36 37 38 39 40 41 42 43 44 45 46 47 48 49 50
000
ASUS42 KTBW 272110
RWRFL
FLORIDA REGIONAL WEATHER ROUNDUP
NATIONAL WEATHER SERVICE TAMPA BAY RUSKIN FL
400 PM EST TUE JAN 27 2015

NOTE: "FAIR" INDICATES FEW OR NO CLOUDS BELOW 12,000 FEET WITH NO
SIGNIFICANT WEATHER AND/OR OBSTRUCTIONS TO VISIBILITY.


FLZ001>010-012>015-112-114-115-272200-
PANHANDLE FLORIDA

CITY           SKY/WX    TMP DP  RH WIND       PRES   REMARKS
PENSACOLA      SUNNY     68  34  28 NW12      30.00S
PENSACOLA NAS  SUNNY     68  33  27 NW14G20   30.00S
MILTON NAS     MOSUNNY   66  35  31 NW8G18    30.01R
CRESTVIEW      SUNNY     78  33  19 NW15G23   30.01R
DUKE FIELD     SUNNY     66  33  28 NW12      29.99R
VALPARAISO     SUNNY     68  34  28 N14       29.98S
MARY ESTHER    SUNNY     66  30  26 NW13      29.98S
TRI COUNTY     FAIR      63  36  36 NW6       29.98S
PANAMA CITY    FAIR      66  36  32 NW16G23   29.97R
TYNDALL AFB    SUNNY     63  45  50 W17       29.98R
APALACHICOLA   SUNNY     66  43  43 W13G22    29.96R

STATION/POSITION SKY/WX   TEMP    WIND        PRES    WAVE   SWELL
                          AIR SEA DIR/SP/G            HT/PER HT/PER
                          (F)     (DEG/KT/KT) (MB)    (FT/S) (FT/S)
30.1N   87.6W              60 62  250/ 16/ 17 1016.0R   3/ 7   2/ 7
29.2N   88.2W              62 69  310/ 10/ 14 1018.2F   3/ 7   2/ 7
28.7N   86.0W              64 70  320/ 16/ 21 1016.4R   6/ 6
PANAMA CITY BEAC           61 60  270/ 15/ 19 1014.7R
CAPE SAN BLAS    NOT AVBL
TOWER C                    59     280/ 23/ 25 1014.6R
28.5N   84.5W              66 68  280/ 19/ 23 1014.8F   6/ 6   2/10

$$
FLZ011-016>038-118-127-128-134-139-239-272200-
NORTH FLORIDA

CITY           SKY/WX    TMP DP  RH WIND       PRES   REMARKS
MARIANNA       SUNNY     63  35  35 NW14      29.96S
TALLAHASSEE    SUNNY     65  32  29 NW16G26   29.95R
PERRY          SUNNY     65  32  28 W16G22    29.93R
CROSS CITY       N/A     64  41  42 W14G20    29.93R
LAKE CITY      FAIR      63  36  36 NW18G25   29.90R
GAINESVILLE    SUNNY     65  38  36 W16G24    29.89R
MAYPORT NAS    MOSUNNY   62  37  39 W10G24    29.87R
JACKSONVILLE   MOSUNNY   61  35  37 W17G24    29.88R
JAX NAS        MOSUNNY   66  34  30 W18G24    29.88R
JAX CRAIG      SUNNY     63  35  35 NW16G29   29.88R
JAX CECIL      SUNNY     64  36  34 W16G26    29.88R
FERNANDINA BEA MOCLDY    64  37  36 NW16G24   29.87R
ST AUGUSTINE   SUNNY     65  37  35 W15G24    29.87R

STATION/POSITION SKY/WX   TEMP    WIND        PRES    WAVE   SWELL
                          AIR SEA DIR/SP/G            HT/PER HT/PER
                          (F)     (DEG/KT/KT) (MB)    (FT/S) (FT/S)
SHELL POINT                64     300/ 11/ 17   N/A
KEATON BEACH               58     260/  9/ 10 1013.9R
CEDAR KEY                  62     280/ 10/ 16 1014.2F
FERNANDINA                 58 56  290/ 15/ 18 1011.4R
30.7N   81.3W                 58                N/A     2/ 3
MAYPORT                    61 58  300/ 18/ 22   N/A
31.4N   80.9W              53 54  310/ 19/ 25 1011.8R   3/ 4
ST AUGUSTINE               64     300/ 14/ 20 1011.6F

$$
FLZ040-043>046-052-053-057-058-063-144-272200-
INTERIOR CENTRAL FLORIDA

CITY           SKY/WX    TMP DP  RH WIND       PRES   REMARKS
OCALA          MOSUNNY   64  43  45 W12G24    29.91S
THE VILLAGES     N/A     64  45  48 W16G33    29.82S
LEESBURG       SUNNY     65  45  48 W21G32    29.93S
SANFORD        SUNNY     66  40  38 W23G32    29.90S
ORLANDO EXEC   SUNNY     67  41  38 W21G31    29.90F
ORLANDO INTL   SUNNY     67  42  40 W20G31    29.92S
KISSIMMEE      SUNNY     66  45  45 W20G30    29.92F
WINTER HAVEN   SUNNY     67  46  47 W18G30    29.95F
LAKELAND       MOSUNNY   66  48  52 W14G24    29.96S
BARTOW         MOSUNNY   66  46  48 W15G24    29.96F
OKEECHOBEE     SUNNY     68  45  42 W16G25    29.96S

$$
FLZ041-047-054-059-064-141-147-272200-
EAST CENTRAL FLORIDA

CITY           SKY/WX    TMP DP  RH WIND       PRES   REMARKS
DAYTONA BEACH  MOSUNNY   67  39  35 W17G30    29.88S
DELAND         CLEAR     66  41  39 W17G24    29.90S
NEW SMYRNA BEA SUNNY     66  37  34 W17G28    29.89S
JFK SPACE CTR  SUNNY     67  41  39 W23       29.88S
TITUSVILLE     SUNNY     66  43  42 W20       29.90F
CAPE CANAVERAL SUNNY     67  43  41 W18       29.89S
PATRICK AFB    SUNNY     68  43  40 W22       29.90F
MELBOURNE      SUNNY     67  42  40 W21G29    29.90F
VERO BEACH     SUNNY     68  42  38 W20       29.93F
FT PIERCE      SUNNY     68  42  38 W16G25    29.93F

STATION/POSITION SKY/WX   TEMP    WIND        PRES    WAVE   SWELL
                          AIR SEA DIR/SP/G            HT/PER HT/PER
                          (F)     (DEG/KT/KT) (MB)    (FT/S) (FT/S)
28.5N   80.2W              62 70  270/ 17/ 23 1012.1F
28.9N   78.5W              62 76  290/ 27/ 33 1011.2R  11/ 9
TRIDENT PIER               65 63  260/ 17/ 23 1011.7F
28.4N   80.5W                 63                N/A     2/ 3
27.6N   80.2W                 73                N/A     4/10   2/11

$$
FLZ050-056-061-142-242-148-248-149-249-151-251-155-255-
160-260-272200-
WEST CENTRAL FLORIDA

CITY           SKY/WX    TMP DP  RH WIND       PRES   REMARKS
CRYSTAL RIVER  FAIR      64  50  59 W16G22    29.95R
INVERNESS      FAIR      64  46  52 W8G16     29.94S
BROOKSVILLE    SUNNY     65  49  56 W14G23    29.96F
ZEPHYRHILLS    FAIR      64  45  48 W16G29    29.97S
CLEARWATER     SUNNY     66  51  58 W17       29.98F
TAMPA INTL     MOSUNNY   65  50  58 W13       29.98F
TAMPA EXEC     MOSUNNY   68  48  49 NW12G18   29.98S
PLANT CITY       N/A    N/A N/A N/A MISG        N/A
MACDILL AFB    PTSUNNY   67  53  59 W12G18    29.99S
PETER O KNIGHT SUNNY     68  52  56 W10G17    29.98S
ST PETERSBURG  SUNNY     64  50  60 W8        29.97F
SARASOTA       SUNNY     64  51  62 W9        29.99S
VENICE         FAIR      66  54  63 W12       30.01S

STATION/POSITION SKY/WX   TEMP    WIND        PRES    WAVE   SWELL
                          AIR SEA DIR/SP/G            HT/PER HT/PER
                          (F)     (DEG/KT/KT) (MB)    (FT/S) (FT/S)
CEDAR KEY                  62     280/ 10/ 16 1014.2F
28.5N   84.5W              66 68  280/ 19/ 23 1014.8F   6/ 6   2/10
27.3N   84.3W                 72                N/A     5/ 5
CLEARWATER BEACH           63 62  230/ 10/ 12 1014.9F
MIDDLE TAMPA BAY           62     270/  9/ 11 1015.5F
VENICE                     66 65  280/ 16/ 17 1015.5F

$$
FLZ066-069-070-075>078-162-262-165-265-272200-
SOUTHWEST FLORIDA AND KEYS

CITY           SKY/WX    TMP DP  RH WIND       PRES   REMARKS
PUNTA GORDA    MOSUNNY   66  49  54 W16       30.01S
FT MYERS       MOSUNNY   66  50  56 W14       30.00S
SOUTHWEST INTL SUNNY     66  49  54 W14G21    30.00F
NAPLES         SUNNY     66  51  58 W10       30.01F
MARCO ISLAND   CLEAR    N/A N/A N/A W12G17    30.01S
IMMOKALEE      CLEAR     72  46  40 W9        30.01S
MARATHON       SUNNY     66  56  70 NW12      30.03S
KEY WEST NAS   PTSUNNY   69  57  65 N9        30.04S
KEY WEST INTL  MOSUNNY   70  58  65 NW9       30.04S

STATION/POSITION SKY/WX   TEMP    WIND        PRES    WAVE   SWELL
                          AIR SEA DIR/SP/G            HT/PER HT/PER
                          (F)     (DEG/KT/KT) (MB)    (FT/S) (FT/S)
VENICE                     66 65  280/ 16/ 17 1015.5F
NAPLES                     64 75  290/ 12/ 13 1016.9F
26.0N   85.6W              68 73  310/ 14/ 17 1017.6S   5/ 9   3/ 9
DRY TORTUGAS               68     330/  9/ 11 1017.4F
NW FL BAY                  64     340/ 12/ 15 1017.2F
SAND KEY                   67     310/ 12/ 15 1017.3R
SOMBRERO KEY               64     320/ 12/ 13 1017.8R
LONG KEY                   63 68  330/ 15/ 17 1017.5F
MOLASSES REEF              67 74  290/ 18/ 20 1016.0S

$$
FLZ067-068-071>074-168-172>174-272200-
SOUTHEAST FLORIDA

CITY           SKY/WX    TMP DP  RH WIND       PRES   REMARKS
W PALM BEACH   MOSUNNY   68  41  37 W13       29.96S
FT LAUDER-EXEC SUNNY     70  33  25 W14G22    29.98S
FT LAUDERDALE  MOSUNNY   68  35  29 W13G23    29.98S
POMPANO BEACH  SUNNY     71  35  26 W17       29.98S
PEMBROKE PINES SUNNY     68  34  28 W15       30.00S
OPA LOCKA      SUNNY     70  34  26 W12       29.99S
MIAMI          MOSUNNY   70  32  24 W12       29.99F
WEST KENDALL   SUNNY     71  36  27 W15       29.99F
HOMESTEAD      SUNNY     70  37  29 W15       29.99F

STATION/POSITION SKY/WX   TEMP    WIND        PRES    WAVE   SWELL
                          AIR SEA DIR/SP/G            HT/PER HT/PER
                          (F)     (DEG/KT/KT) (MB)    (FT/S) (FT/S)
PORT EVERGLADES            67     250/  9/ 14 1015.1
VIRGINIA KEY               67 68  260/ 11/ 13 1015.7F
LAKE WORTH                 65 74  290/  9/ 15 1014.4S


USA.gov is the U.S. government's official web portal to all federal, state and local government web resources and services.